This is the latest recevied weather packets stored in our database for station/object KG5CK-1. If no packets are shown the sender has not sent any weather packets the latest 10 day(s).
| Time | Temp. | Humidity | Pressure | Rain* | Wind** | Luminosity | Snow |
|---|---|---|---|---|---|---|---|
| 1778069583 | 12.22° C | 86% | 1008.8 hPa | 0 mm | 2.24 m/s, 7° | - | - |
| 1778069523 | 12.22° C | 86% | 1008.8 hPa | 0 mm | 2.24 m/s, 7° | - | - |
| 1778069463 | 12.22° C | 86% | 1008.8 hPa | 0 mm | 2.24 m/s, 7° | - | - |
| 1778069403 | 12.22° C | 86% | 1008.9 hPa | 0 mm | 1.34 m/s, 28° | - | - |
| 1778069343 | 12.22° C | 86% | 1008.9 hPa | 0 mm | 1.34 m/s, 28° | - | - |
| 1778069283 | 12.22° C | 86% | 1008.9 hPa | 0 mm | 1.34 m/s, 28° | - | - |
| 1778069223 | 12.22° C | 86% | 1008.9 hPa | 0 mm | 1.34 m/s, 28° | - | - |
| 1778069163 | 12.22° C | 86% | 1008.9 hPa | 0 mm | 1.34 m/s, 28° | - | - |
| 1778069102 | 12.22° C | 85% | 1009 hPa | 0 mm | 2.24 m/s, 331° | - | - |
| 1778069042 | 12.22° C | 85% | 1009 hPa | 0 mm | 2.24 m/s, 331° | - | - |
| 1778068983 | 12.22° C | 85% | 1009 hPa | 0 mm | 2.24 m/s, 331° | - | - |
| 1778068923 | 12.22° C | 85% | 1009 hPa | 0 mm | 2.24 m/s, 331° | - | - |
| 1778068863 | 12.22° C | 85% | 1009 hPa | 0 mm | 2.24 m/s, 331° | - | - |
| 1778068803 | 12.22° C | 85% | 1008.6 hPa | 0 mm | 0.89 m/s, 25° | - | - |
| 1778068743 | 12.22° C | 85% | 1008.6 hPa | 0 mm | 0.89 m/s, 25° | - | - |
| 1778068682 | 12.22° C | 85% | 1008.6 hPa | 0 mm | 0.89 m/s, 25° | - | - |
| 1778068623 | 12.22° C | 85% | 1008.6 hPa | 0 mm | 0.89 m/s, 25° | - | - |
| 1778068563 | 12.22° C | 85% | 1008.6 hPa | 0 mm | 0.89 m/s, 25° | - | - |
| 1778068503 | 12.22° C | 84% | 1008.5 hPa | 0 mm | 2.68 m/s, 13° | - | - |
| 1778068443 | 12.22° C | 84% | 1008.5 hPa | 0 mm | 2.68 m/s, 13° | - | - |
| 1778068383 | 12.22° C | 84% | 1008.5 hPa | 0 mm | 2.68 m/s, 13° | - | - |
| 1778068323 | 12.22° C | 84% | 1008.5 hPa | 0 mm | 2.68 m/s, 13° | - | - |
| 1778068263 | 12.22° C | 84% | 1008.5 hPa | 0 mm | 2.68 m/s, 13° | - | - |
| 1778068203 | 12.22° C | 84% | 1008.4 hPa | 0 mm | 0.89 m/s, 40° | - | - |
| 1778068144 | 12.22° C | 84% | 1008.4 hPa | 0 mm | 0.89 m/s, 40° | - | - |
* Rain latest hour (hover to see other rain measurements)
** Current wind speed in m/s (hover to see current wind gust speed)